Location: Amsterdam
(30.7274°N, 84.4357°W)
Time: 20:58:11
(UTC+00:00)

Tiros 1 despin weight - Pass Details

Date: 17 February 2026
Orbit: 556 x 593 km, 48.2° (Epoch: 3 March)

Event Time Altitude Azimuth Distance (km) Brightness Sun altitude
Rises 02:51:13 0° 318° (NW) 2,736 - -44.4°
Reaches altitude 10° 02:53:37 10° 327° (NNW) 1,843 - -44.9°
Maximum altitude 02:57:30 35° 34° (NE) 914 - -45.7°
Drops below altitude 10° 03:01:24 10° 101° (ESE) 1,854 - -46.5°
Sets 03:03:48 0° 111° (ESE) 2,755 - -47.0°
